Madigan Hospital, WA

4:58 AM PDT on August 30, 2016 (GMT -0700)
Gray Army Air Field

Weather History for KGRF - March, 2014

Change the Weather History Date:

Monday, March 24, 2014

  Actual Average Record
Temperature  
Mean Temperature 47 °F -  
Max Temperature 66 °F 53 °F 66 °F (2014)
Min Temperature 30 °F 35 °F 26 °F (2003)
Degree Days  
Heating Degree Days 18    
Moisture  
Dew Point 37 °F    
Average Humidity 69    
Maximum Humidity 99    
Minimum Humidity 35    
Precipitation  
Precipitation 0.00 in - - ()
Sea Level Pressure  
Sea Level Pressure 30.07 in    
Wind  
Wind Speed 3 mph (WNW)    
Max Wind Speed 6 mph    
Max Gust Speed -    
Visibility 10 miles    
Events      
Averages and records for this station are not official NWS values.
T = Trace of Precipitation, MM = Missing Value Source: NWS Daily Summary

Daily Weather History Graph

Daily Weather History Graph

Search for Another Location

Airport or City:

Trip Planner

Search our weather history database for the weather conditions in past years. The results will help you decide how hot, cold, wet, or windy it might be!

Date:

Astronomy

Mar. 24, 2014 Rise Set
Actual Time 7:05 AM PDT 7:28 PM PDT
Civil Twilight 6:34 AM PDT 7:59 PM PDT
Nautical Twilight 5:58 AM PDT 8:35 PM PDT
Astronomical Twilight 5:21 AM PDT 9:12 PM PDT
Moon 3:01 AM PDT (3/24) 12:39 PM PDT (3/24)
Length of Visible Light 13h 24m
Length of Day
12h 23m
Last Quarter, 42% of the Moon is Illuminated
Mar 24
Last Quarter
Mar 30
New
Apr 7
First Quarter
Apr 15
Full
Apr 22
Last Quarter

Hourly Weather History & Observations

Time (PDT) Temp. Windchill Dew Point Humidity Pressure Visibility Wind Dir Wind Speed Gust Speed Precip Events Conditions
12:58 AM 39.9 °F - 36.7 °F 88% 30.25 in 10.0 mi West 2.3 mph - N/A   Clear
1:58 AM 36.5 °F - 35.1 °F 95% 30.23 in 10.0 mi SE 2.3 mph - N/A   Partly Cloudy
2:58 AM 36.5 °F - 36.1 °F 99% 30.23 in 10.0 mi Calm Calm - N/A   Overcast
3:58 AM 37.4 °F - 36.5 °F 97% 30.21 in 10.0 mi East 1.2 mph - N/A   Clear
4:58 AM 33.6 °F 29.4 °F 33.1 °F 98% 30.19 in 10.0 mi SSE 4.6 mph - N/A   Clear
5:58 AM 33.4 °F - 33.1 °F 99% 30.17 in 10.0 mi East 2.3 mph - N/A   Clear
6:58 AM 33.6 °F - 33.4 °F 99% 30.16 in 10.0 mi SE 1.2 mph - N/A   Clear
7:58 AM 30.9 °F - 30.6 °F 99% 30.14 in 10.0 mi ESE 2.3 mph - N/A   Clear
8:58 AM 37.8 °F - 37.2 °F 98% 30.13 in 10.0 mi Calm Calm - N/A   Clear
9:58 AM 44.6 °F - 40.5 °F 85% 30.12 in 10.0 mi North 2.3 mph - N/A   Clear
10:58 AM 48.9 °F - 40.3 °F 72% 30.10 in 10.0 mi East 2.3 mph - N/A   Partly Cloudy
11:58 AM 52.3 °F - 40.8 °F 65% 30.08 in 10.0 mi West 3.5 mph - N/A   Clear
12:58 PM 56.7 °F - 39.7 °F 53% 30.06 in 10.0 mi Variable 5.8 mph - N/A   Clear
1:58 PM 59.9 °F - 38.7 °F 45% 30.04 in 10.0 mi WNW 3.5 mph - N/A   Clear
2:58 PM 62.2 °F - 40.6 °F 45% 30.01 in 10.0 mi Variable 3.5 mph - N/A   Clear
3:58 PM 64.9 °F - 40.1 °F 40% 29.98 in 10.0 mi WNW 3.5 mph - N/A   Clear
4:58 PM 64.8 °F - 39.7 °F 40% 29.96 in 10.0 mi West 5.8 mph - N/A   Clear
5:58 PM 64.8 °F - 36.7 °F 35% 29.94 in 10.0 mi NNW 4.6 mph - N/A   Clear
6:58 PM 62.4 °F - 36.9 °F 39% 29.93 in 10.0 mi ESE 1.2 mph - N/A   Clear
7:58 PM 56.7 °F - 41.4 °F 57% 29.93 in 10.0 mi WSW 5.8 mph - N/A   Clear
8:58 PM 57.4 °F - 39.2 °F 51% 29.94 in 10.0 mi West 5.8 mph - N/A   Clear
9:58 PM 55.6 °F - 34.7 °F 45% 29.93 in 10.0 mi WNW 5.8 mph - N/A   Scattered Clouds
10:58 PM 54.0 °F - 31.8 °F 43% 29.93 in 10.0 mi WNW 3.5 mph - N/A   Overcast
11:58 PM 50.0 °F - 37.4 °F 62% 29.93 in 10.0 mi East 5.8 mph - N/A   Mostly Cloudy